EN

Hourly Weather Americo Brasiliense

Today, 26 January, Tuesday

Time Temperature Precipitation Wind Pressure Humidity
00:00 +22°C° 0 mm 1 mps 698 mmHg 87%
01:00 +22°C° 0 mm 1 mps 697 mmHg 87%
02:00 +21°C° 0 mm 1 mps 697 mmHg 88%
03:00 +21°C° 0 mm 1 mps 697 mmHg 88%
04:00 +21°C° 0 mm 1 mps 697 mmHg 89%
05:00 +21°C° 0 mm 1 mps 697 mmHg 89%
06:00 +20°C° 0 mm 1 mps 697 mmHg 90%
07:00 +22°C° 0 mm 1 mps 697 mmHg 86%
08:00 +24°C° 0 mm 2 mps 698 mmHg 82%
09:00 +25°C° 0 mm 2 mps 699 mmHg 78%
10:00 +26°C° 0 mm 2 mps 699 mmHg 73%
11:00 +28°C° 0 mm 3 mps 699 mmHg 68%
12:00 +29°C° 0 mm 3 mps 699 mmHg 62%
13:00 +30°C° 0.1 mm 3 mps 698 mmHg 62%
14:00 +30°C° 0.1 mm 3 mps 698 mmHg 62%
15:00 +30°C° 0.1 mm 3 mps 697 mmHg 62%
16:00 +29°C° 0.6 mm 2 mps 697 mmHg 68%
17:00 +28°C° 0.6 mm 1 mps 697 mmHg 75%
18:00 +27°C° 0.6 mm 1 mps 697 mmHg 81%
19:00 +26°C° 0.3 mm 1 mps 697 mmHg 83%
20:00 +24°C° 0.3 mm 1 mps 697 mmHg 85%
21:00 +23°C° 0.3 mm 1 mps 698 mmHg 87%
22:00 +23°C° 0 mm 1 mps 698 mmHg 88%
23:00 +22°C° 0 mm 1 mps 698 mmHg 89%

Tomorrow, 27 January, Wednesday

Time Temperature Precipitation Wind Pressure Humidity
00:00 +22°C° 0 mm 1 mps 698 mmHg 90%
01:00 +22°C° 0 mm 1 mps 697 mmHg 91%
02:00 +21°C° 0 mm 1 mps 697 mmHg 92%
03:00 +20°C° 0 mm 2 mps 696 mmHg 92%
04:00 +20°C° 0 mm 2 mps 697 mmHg 93%
05:00 +20°C° 0 mm 2 mps 697 mmHg 93%
06:00 +20°C° 0 mm 2 mps 697 mmHg 93%
07:00 +21°C° 0 mm 2 mps 698 mmHg 89%
08:00 +24°C° 0 mm 2 mps 698 mmHg 84%
09:00 +25°C° 0 mm 3 mps 699 mmHg 80%
10:00 +27°C° 0 mm 3 mps 699 mmHg 75%
11:00 +28°C° 0 mm 3 mps 699 mmHg 69%
12:00 +30°C° 0 mm 4 mps 699 mmHg 64%
13:00 +30°C° 0.3 mm 3 mps 698 mmHg 65%
14:00 +30°C° 0.3 mm 3 mps 697 mmHg 65%
15:00 +30°C° 0.3 mm 2 mps 697 mmHg 65%
16:00 +29°C° 1 mm 2 mps 696 mmHg 72%
17:00 +28°C° 1 mm 2 mps 696 mmHg 78%
18:00 +27°C° 1 mm 2 mps 696 mmHg 84%
19:00 +26°C° 0.2 mm 2 mps 696 mmHg 86%
20:00 +24°C° 0.2 mm 2 mps 696 mmHg 88%
21:00 +23°C° 0.2 mm 2 mps 696 mmHg 90%
22:00 +23°C° 0.3 mm 2 mps 696 mmHg 91%
23:00 +21°C° 0.3 mm 2 mps 697 mmHg 92%

Day after tomorrow, 28 January, Thursday

Time Temperature Precipitation Wind Pressure Humidity
00:00 +21°C° 0.3 mm 2 mps 697 mmHg 93%
01:00 +21°C° 0 mm 2 mps 696 mmHg 93%
02:00 +20°C° 0 mm 2 mps 696 mmHg 94%
03:00 +20°C° 0 mm 2 mps 696 mmHg 94%
04:00 +20°C° 0 mm 2 mps 696 mmHg 94%
05:00 +20°C° 0 mm 2 mps 696 mmHg 94%
06:00 +20°C° 0 mm 2 mps 696 mmHg 94%
07:00 +21°C° 0 mm 2 mps 697 mmHg 88%
08:00 +24°C° 0 mm 3 mps 698 mmHg 82%
09:00 +25°C° 0 mm 3 mps 698 mmHg 75%
10:00 +27°C° 0 mm 3 mps 698 mmHg 70%
11:00 +28°C° 0 mm 4 mps 698 mmHg 66%
12:00 +29°C° 0 mm 4 mps 698 mmHg 61%
13:00 +30°C° 0 mm 3 mps 697 mmHg 60%
14:00 +30°C° 0 mm 3 mps 697 mmHg 59%
15:00 +30°C° 0 mm 3 mps 696 mmHg 58%
16:00 +30°C° 0 mm 2 mps 696 mmHg 63%
17:00 +29°C° 0 mm 2 mps 696 mmHg 68%
18:00 +28°C° 0 mm 1 mps 696 mmHg 73%
19:00 +27°C° 0 mm 1 mps 696 mmHg 75%
20:00 +23°C° 0 mm 0 mps 696 mmHg 77%
21:00 +22°C° 0 mm 0 mps 696 mmHg 80%
22:00 +23°C° 0 mm 1 mps 696 mmHg 81%
23:00 +23°C° 0 mm 1 mps 697 mmHg 81%

29 January, Friday

Time Temperature Precipitation Wind Pressure Humidity
00:00 +21°C° 0 mm 2 mps 697 mmHg 82%
01:00 +21°C° 0 mm 2 mps 697 mmHg 81%
02:00 +20°C° 0 mm 2 mps 696 mmHg 80%
03:00 +20°C° 0 mm 2 mps 696 mmHg 80%
04:00 +20°C° 0 mm 2 mps 696 mmHg 80%
05:00 +20°C° 0 mm 1 mps 696 mmHg 79%
06:00 +20°C° 0 mm 1 mps 697 mmHg 79%
07:00 +21°C° 0 mm 2 mps 697 mmHg 76%
08:00 +24°C° 0 mm 2 mps 698 mmHg 73%
09:00 +25°C° 0 mm 2 mps 699 mmHg 70%
10:00 +27°C° 0 mm 2 mps 699 mmHg 65%
11:00 +28°C° 0 mm 3 mps 699 mmHg 60%
12:00 +30°C° 0 mm 3 mps 699 mmHg 55%
13:00 +30°C° 0 mm 2 mps 698 mmHg 55%
14:00 +30°C° 0 mm 2 mps 698 mmHg 54%
15:00 +31°C° 0 mm 2 mps 697 mmHg 54%
16:00 +30°C° 0 mm 2 mps 697 mmHg 58%
17:00 +29°C° 0 mm 1 mps 697 mmHg 63%
18:00 +28°C° 0 mm 1 mps 697 mmHg 68%
19:00 +27°C° 0 mm 1 mps 697 mmHg 71%
20:00 +25°C° 0 mm 1 mps 697 mmHg 73%
21:00 +22°C° 0 mm 0 mps 697 mmHg 76%
22:00 +21°C° 0 mm 0 mps 697 mmHg 77%
23:00 +23°C° 0 mm 1 mps 697 mmHg 79%

30 January, Saturday

Time Temperature Precipitation Wind Pressure Humidity
00:00 +22°C° 0 mm 1 mps 698 mmHg 80%
01:00 +22°C° 0 mm 1 mps 697 mmHg 81%
02:00 +21°C° 0 mm 1 mps 697 mmHg 81%
03:00 +21°C° 0 mm 1 mps 697 mmHg 82%
04:00 +21°C° 0 mm 1 mps 697 mmHg 81%
05:00 +21°C° 0 mm 1 mps 697 mmHg 81%
06:00 +20°C° 0 mm 1 mps 698 mmHg 81%
07:00 +22°C° 0 mm 1 mps 698 mmHg 77%
08:00 +24°C° 0 mm 1 mps 699 mmHg 73%
09:00 +26°C° 0 mm 1 mps 700 mmHg 69%
10:00 +28°C° 0 mm 2 mps 700 mmHg 64%
11:00 +29°C° 0 mm 2 mps 700 mmHg 59%
12:00 +31°C° 0 mm 2 mps 700 mmHg 53%
13:00 +31°C° 0 mm 2 mps 699 mmHg 51%
14:00 +31°C° 0 mm 2 mps 699 mmHg 49%
15:00 +32°C° 0 mm 2 mps 698 mmHg 47%
16:00 +31°C° 0 mm 1 mps 698 mmHg 53%
17:00 +30°C° 0 mm 1 mps 697 mmHg 60%
18:00 +29°C° 0 mm 1 mps 697 mmHg 66%
19:00 +25°C° 0 mm 0 mps 697 mmHg 67%
20:00 +24°C° 0 mm 0 mps 697 mmHg 69%
21:00 +22°C° 0 mm 0 mps 698 mmHg 71%
22:00 +22°C° 0 mm 0 mps 698 mmHg 72%
23:00 +23°C° 0 mm 1 mps 698 mmHg 73%

31 January, Sunday

Time Temperature Precipitation Wind Pressure Humidity
00:00 +23°C° 0 mm 1 mps 698 mmHg 74%
01:00 +23°C° 0 mm 1 mps 698 mmHg 75%
02:00 +23°C° 0 mm 1 mps 697 mmHg 76%
03:00 +22°C° 0 mm 1 mps 697 mmHg 77%
04:00 +22°C° 0 mm 1 mps 697 mmHg 78%
05:00 +22°C° 0 mm 1 mps 698 mmHg 79%
06:00 +22°C° 0 mm 1 mps 698 mmHg 79%
07:00 +23°C° 0 mm 1 mps 698 mmHg 79%
08:00 +24°C° 0 mm 1 mps 699 mmHg 79%
09:00 +25°C° 0 mm 1 mps 699 mmHg 79%
10:00 +26°C° 0 mm 1 mps 699 mmHg 75%
11:00 +27°C° 0 mm 1 mps 699 mmHg 70%
12:00 +29°C° 0 mm 1 mps 699 mmHg 65%
13:00 +30°C° 0 mm 1 mps 699 mmHg 62%
14:00 +31°C° 0 mm 2 mps 699 mmHg 58%
15:00 +32°C° 0 mm 2 mps 698 mmHg 55%
16:00 +31°C° 0.2 mm 1 mps 698 mmHg 61%
17:00 +30°C° 0.2 mm 1 mps 698 mmHg 67%
18:00 +29°C° 0.2 mm 1 mps 697 mmHg 73%
19:00 +27°C° 0.1 mm 1 mps 697 mmHg 76%
20:00 +25°C° 0.1 mm 1 mps 697 mmHg 79%
21:00 +24°C° 0.1 mm 1 mps 697 mmHg 82%
22:00 +24°C° 0 mm 1 mps 697 mmHg 82%
23:00 +23°C° 0 mm 1 mps 698 mmHg 82%
Show more